FW6759 Weather Reports


time (UTC)temp
C
wind
direction
speed
KPH
gust
KPH
rain 1hr
cm
rain 24hr
cm
rain mn
cm
humidity
%
barometer
mb
20260906075008 20 24 17.7 20.9 0.00 0.00 0.00 47 1016.2
20260906074008 20 342 17.7 20.9 0.00 0.00 0.00 45 1016.2
20260906073007 20 21 16.1 20.9 0.00 0.00 0.00 45 1016.0
20260906072007 20 58 16.1 25.7 0.00 0.00 0.00 46 1016.2
20260906065007 18 68 16.1 17.7 0.00 0.00 0.00 48 1015.7
20260906064009 18 32 17.7 20.9 0.00 0.00 0.00 47 1015.6
20260906063008 18 69 17.7 24.1 0.00 0.00 0.00 47 1015.2
20260906062008 18 43 19.3 24.1 0.00 0.00 0.00 48 1015.2
20260906061007 18 59 25.7 35.4 0.00 0.00 0.00 48 1015.2
20260906060007 17 46 24.1 29.0 0.00 0.00 0.00 48 1015.0
20260906055007 17 77 22.5 25.7 0.00 0.00 0.00 48 1015.0
20260906054007 17 89 20.9 25.7 0.00 0.00 0.00 48 1014.7
20260906053007 16 91 17.7 20.9 0.00 0.00 0.00 51 1015.1
20260906052007 16 346 16.1 20.9 0.00 0.00 0.00 49 1015.0
20260906045008 17 95 19.3 27.4 0.00 0.00 0.00 47 1014.8
20260906044008 17 45 25.7 29.0 0.00 0.00 0.00 45 1014.7
20260906043008 17 48 27.4 32.2 0.00 0.00 0.00 44 1014.7
20260906041010 17 62 24.1 29.0 0.00 0.00 0.00 42 1014.4
20260906040008 15 45 16.1 22.5 0.00 0.00 0.00 50 1014.6
20260906035007 15 7 20.9 20.9 0.00 0.00 0.00 51 1014.6
20260906034007 15 15 16.1 17.7 0.00 0.00 0.00 52 1014.4
20260906031007 16 58 25.7 32.2 0.00 0.00 0.00 48 1014.2
20260906030007 16 43 22.5 27.4 0.00 0.00 0.00 50 1014.2
20260906025007 16 66 19.3 27.4 0.00 0.00 0.00 51 1014.3
20260906024007 16 84 25.7 33.8 0.00 0.00 0.00 50 1014.2
20260906023007 17 65 30.6 33.8 0.00 0.00 0.00 44 1014.0
20260906022007 17 55 29.0 35.4 0.00 0.00 0.00 43 1014.1
20260906021007 17 55 24.1 27.4 0.00 0.00 0.00 44 1014.1
20260906020007 17 68 22.5 24.1 0.00 0.00 0.00 45 1014.1
20260906015007 17 54 22.5 27.4 0.00 0.00 0.00 46 1014.2
20260906013008 17 59 25.7 29.0 0.00 0.00 0.00 47 1014.2
20260906012008 15 52 20.9 27.4 0.00 0.00 0.00 52 1014.2
20260906010007 17 49 24.1 25.7 0.00 0.00 0.00 47 1014.3
20260906005007 17 42 27.4 32.2 0.00 0.00 0.00 48 1014.3
20260906004007 17 57 24.1 27.4 0.00 0.00 0.00 49 1014.2
20260906003007 16 43 20.9 24.1 0.00 0.00 0.00 49 1014.4
20260906002007 16 56 22.5 25.7 0.00 0.00 0.00 49 1014.3
20260906001010 15 12 16.1 20.9 0.00 0.00 0.00 53 1014.2
20260905235007 15 6 14.5 17.7 0.00 0.00 0.00 54 1014.4
20260905234007 15 20 14.5 17.7 0.00 0.00 0.00 54 1014.4
20260905233007 15 15 14.5 17.7 0.00 0.00 0.00 54 1014.5
20260905232007 15 346 14.5 17.7 0.00 0.00 0.00 55 1014.5
20260905231010 15 347 14.5 20.9 0.00 0.00 0.00 55 1014.6
20260905230008 15 3 17.7 24.1 0.00 0.00 0.00 53 1014.7
20260905225008 15 6 17.7 22.5 0.00 0.00 0.00 54 1014.6
20260905222007 16 357 25.7 27.4 0.00 0.00 0.00 53 1014.6
20260905220007 16 358 27.4 33.8 0.00 0.00 0.00 52 1014.5
20260905215007 16 343 30.6 37.0 0.00 0.00 0.00 53 1014.4
20260905214007 16 30 30.6 37.0 0.00 0.00 0.00 52 1014.3
20260905213007 16 322 24.1 32.2 0.00 0.00 0.00 51 1014.4
20260905211007 16 330 25.7 32.2 0.00 0.00 0.00 51 1014.5
20260905205008 16 328 32.2 37.0 0.00 0.00 0.00 50 1014.3
20260905203007 16 5 33.8 35.4 0.00 0.00 0.00 50 1014.4
20260905202010 16 354 30.6 33.8 0.00 0.00 0.00 50 1014.5
20260905201007 16 350 30.6 35.4 0.00 0.00 0.00 50 1014.6
20260905200007 16 348 27.4 29.0 0.00 0.00 0.00 49 1014.6
20260905195007 16 347 25.7 29.0 0.00 0.00 0.00 50 1014.6
20260905194007 16 349 27.4 29.0 0.00 0.00 0.00 50 1014.6
20260905193007 16 348 29.0 33.8 0.00 0.00 0.00 49 1014.7
20260905192010 16 1 25.7 29.0 0.00 0.00 0.00 49 1014.6
20260905191007 16 4 25.7 27.4 0.00 0.00 0.00 49 1014.6
20260905190007 16 352 20.9 24.1 0.00 0.00 0.00 50 1014.7
20260905185007 16 1 20.9 24.1 0.00 0.00 0.00 51 1014.8
20260905184007 16 355 20.9 24.1 0.00 0.00 0.00 50 1014.6
20260905181007 16 342 16.1 17.7 0.00 0.00 0.00 53 1014.3
20260905180007 15 346 12.9 17.7 0.00 0.00 0.00 57 1014.3
20260905175007 15 349 8.0 9.7 0.00 0.00 0.00 60 1014.2
20260905174007 15 336 4.8 6.4 0.00 0.00 0.00 62 1014.1
20260905173007 15 336 1.6 3.2 0.00 0.00 0.00 63 1014.1
20260905172007 15 343 3.2 6.4 0.00 0.00 0.00 63 1014.1
20260905171007 16 334 9.7 11.3 0.00 0.00 0.00 61 1013.9
20260905164007 16 316 3.2 3.2 0.00 0.00 0.00 55 1014.0
20260905163007 16 337 8.0 12.9 0.00 0.00 0.00 56 1013.9
20260905162007 16 334 8.0 14.5 0.00 0.00 0.00 55 1013.9
20260905161007 17 17 9.7 12.9 0.00 0.00 0.00 52 1014.1
20260905160007 17 342 12.9 17.7 0.00 0.00 0.00 53 1014.0
20260905155007 17 346 16.1 17.7 0.00 0.00 0.00 51 1013.8
20260905154011 17 341 16.1 20.9 0.00 0.00 0.00 50 1013.9
20260905153007 18 6 20.9 24.1 0.00 0.00 0.00 50 1013.7
20260905152011 18 351 17.7 22.5 0.00 0.00 0.00 49 1013.9
20260905151007 18 30 12.9 17.7 0.00 0.00 0.00 47 1013.7
20260905150007 18 349 12.9 17.7 0.00 0.00 0.00 47 1013.8
20260905145007 19 36 11.3 17.7 0.00 0.00 0.00 47 1013.7
20260905144007 19 31 14.5 17.7 0.00 0.00 0.00 47 1013.6
20260905143007 19 96 12.9 17.7 0.00 0.00 0.00 47 1013.6
20260905141007 19 33 14.5 17.7 0.00 0.00 0.00 46 1013.9
20260905135010 20 10 9.7 12.9 0.00 0.00 0.00 44 1013.7
20260905131007 19 26 20.9 27.4 0.00 0.00 0.00 45 1013.8
20260905130007 19 52 25.7 32.2 0.00 0.00 0.00 45 1014.1
20260905124007 18 14 29.0 38.6 0.00 0.00 0.00 48 1013.8
20260905123007 18 53 24.1 29.0 0.00 0.00 0.00 47 1013.6
20260905122009 18 344 25.7 33.8 0.00 0.00 0.00 47 1013.9
20260905121007 18 3 24.1 33.8 0.00 0.00 0.00 49 1014.0
20260905120007 18 27 24.1 32.2 0.00 0.00 0.00 48 1014.2
20260905115007 18 56 22.5 32.2 0.00 0.00 0.00 50 1014.0
20260905114007 18 324 24.1 29.0 0.00 0.00 0.00 51 1014.2
20260905113007 18 19 19.3 29.0 0.00 0.00 0.00 50 1014.0
20260905112007 17 34 20.9 29.0 0.00 0.00 0.00 51 1014.3
20260905111007 18 57 20.9 25.7 0.00 0.00 0.00 52 1014.4
20260905110007 18 1 19.3 27.4 0.00 0.00 0.00 51 1014.2
20260905104007 17 32 16.1 24.1 0.00 0.00 0.00 53 1014.6
20260905103007 17 20 17.7 27.4 0.00 0.00 0.00 52 1014.4
20260905102006 17 349 17.7 25.7 0.00 0.00 0.00 52 1014.3
20260905101007 17 51 12.9 17.7 0.00 0.00 0.00 52 1014.7
20260905095007 17 13 14.5 22.5 0.00 0.00 0.00 54 1014.9
20260905094007 16 351 16.1 22.5 0.00 0.00 0.00 54 1014.8
20260905093010 17 3 14.5 24.1 0.00 0.00 0.00 54 1014.8
20260905092007 16 25 16.1 20.9 0.00 0.00 0.00 56 1014.9
20260905091007 16 353 19.3 25.7 0.00 0.00 0.00 56 1014.9
20260905084007 16 47 16.1 20.9 0.00 0.00 0.00 56 1015.3
20260905083007 16 333 14.5 20.9 0.00 0.00 0.00 55 1015.2
20260905082007 15 342 17.7 25.7 0.00 0.00 0.00 56 1015.1
20260905081007 15 349 25.7 33.8 0.00 0.00 0.00 55 1015.2